| time (UTC) | temp C | wind direction | speed KPH | gust KPH | rain 1hr cm | rain 24hr cm | rain mn cm | humidity % | barometer mb |
| 20260507191200 | 16 | 281 | 1.6 | 3.2 | 0.00 | 0.00 | 0.00 | 30 | 1021.1 |
| 20260507185659 | 17 | 236 | 0.0 | 0.0 | 0.00 | 0.00 | 0.00 | 25 | 1020.9 |
| 20260507184157 | 16 | 240 | 0.0 | 0.0 | 0.00 | 0.00 | 0.00 | 24 | 1021.1 |
| 20260507182653 | 16 | 252 | 0.0 | 0.0 | 0.00 | 0.00 | 0.00 | 26 | 1021.4 |
| 20260507181148 | 16 | 275 | 0.0 | 0.0 | 0.00 | 0.00 | 0.00 | 30 | 1021.6 |
| 20260507175649 | 16 | 265 | 1.6 | 3.2 | 0.00 | 0.00 | 0.00 | 26 | 1021.9 |
| 20260507174147 | 15 | 287 | 0.0 | 4.8 | 0.00 | 0.00 | 0.00 | 26 | 1021.7 |
| 20260507172643 | 15 | 281 | 4.8 | 8.0 | 0.00 | 0.00 | 0.00 | 24 | 1022.2 |
| 20260507171138 | 15 | 272 | 0.0 | 0.0 | 0.00 | 0.00 | 0.00 | 25 | 1022.1 |
| 20260507165633 | 15 | 272 | 0.0 | 0.0 | 0.00 | 0.00 | 0.00 | 25 | 1022.5 |
| 20260507164129 | 15 | 195 | 0.0 | 0.0 | 0.00 | 0.00 | 0.00 | 27 | 1022.5 |
| 20260507162625 | 13 | 241 | 0.0 | 0.0 | 0.00 | 0.00 | 0.00 | 29 | 1022.6 |
| 20260507161121 | 13 | 264 | 3.2 | 4.8 | 0.00 | 0.00 | 0.00 | 30 | 1022.7 |
| 20260507155621 | 13 | 279 | 4.8 | 8.0 | 0.00 | 0.00 | 0.00 | 33 | 1023.0 |
| 20260507154118 | 12 | 282 | 4.8 | 8.0 | 0.00 | 0.00 | 0.00 | 36 | 1022.5 |
| 20260507152613 | 12 | 277 | 6.4 | 11.3 | 0.00 | 0.00 | 0.00 | 38 | 1023.0 |
| 20260507151109 | 11 | 286 | 6.4 | 8.0 | 0.00 | 0.00 | 0.00 | 39 | 1022.7 |
| 20260507145603 | 11 | 244 | 6.4 | 8.0 | 0.00 | 0.00 | 0.00 | 39 | 1022.8 |
| 20260507144101 | 10 | 275 | 8.0 | 9.7 | 0.00 | 0.00 | 0.00 | 39 | 1022.7 |
| 20260507142600 | 9 | 262 | 8.0 | 9.7 | 0.00 | 0.00 | 0.00 | 42 | 1022.6 |
| 20260507141057 | 8 | 267 | 8.0 | 9.7 | 0.00 | 0.00 | 0.00 | 44 | 1022.7 |
| 20260507135553 | 7 | 283 | 4.8 | 8.0 | 0.00 | 0.00 | 0.00 | 48 | 1022.6 |
| 20260507134049 | 6 | 288 | 6.4 | 9.7 | 0.00 | 0.00 | 0.00 | 55 | 1022.6 |
| 20260507132545 | 5 | 281 | 1.6 | 3.2 | 0.00 | 0.00 | 0.00 | 60 | 1022.4 |
| 20260507131042 | 4 | 288 | 6.4 | 8.0 | 0.00 | 0.00 | 0.00 | 58 | 1022.5 |
| 20260507125541 | 3 | 280 | 0.0 | 0.0 | 0.00 | 0.00 | 0.00 | 60 | 1022.4 |
| 20260507124038 | 2 | 299 | 0.0 | 0.0 | 0.00 | 0.00 | 0.00 | 62 | 1022.0 |
| 20260507122533 | 1 | 296 | 0.0 | 0.0 | 0.00 | 0.00 | 0.00 | 62 | 1022.1 |
| 20260507121032 | 1 | 287 | 6.4 | 8.0 | 0.00 | 0.00 | 0.00 | 61 | 1021.7 |
| 20260507115528 | 1 | 292 | 0.0 | 0.0 | 0.00 | 0.00 | 0.00 | 65 | 1021.6 |
| 20260507114023 | 0 | 288 | 0.0 | 0.0 | 0.00 | 0.00 | 0.00 | 67 | 1022.1 |
| 20260507112521 | 0 | 277 | 0.0 | 0.0 | 0.00 | 0.00 | 0.00 | 72 | 1022.0 |
| 20260507111016 | 0 | 274 | 0.0 | 0.0 | 0.00 | 0.00 | 0.00 | 72 | 1021.9 |
| 20260507105512 | 0 | 276 | 0.0 | 0.0 | 0.00 | 0.00 | 0.00 | 73 | 1021.9 |
| 20260507104008 | -1 | 269 | 0.0 | 0.0 | 0.00 | 0.00 | 0.00 | 75 | 1021.9 |
| 20260507102504 | 0 | 275 | 0.0 | 0.0 | 0.00 | 0.00 | 0.00 | 75 | 1022.0 |
| 20260507100958 | 0 | 294 | 0.0 | 0.0 | 0.00 | 0.00 | 0.00 | 76 | 1022.2 |
| 20260507095457 | -1 | 270 | 0.0 | 0.0 | 0.00 | 0.00 | 0.00 | 77 | 1022.1 |
| 20260507093952 | -1 | 260 | 0.0 | 0.0 | 0.00 | 0.00 | 0.00 | 78 | 1022.2 |
| 20260507092450 | -1 | 241 | 0.0 | 0.0 | 0.00 | 0.00 | 0.00 | 78 | 1022.4 |
| 20260507090945 | -1 | 281 | 0.0 | 0.0 | 0.00 | 0.00 | 0.00 | 83 | 1022.4 |
| 20260507085441 | -2 | 287 | 0.0 | 0.0 | 0.00 | 0.00 | 0.00 | 87 | 1022.5 |
| 20260507083938 | -2 | 274 | 1.6 | 3.2 | 0.00 | 0.00 | 0.00 | 89 | 1022.6 |
| 20260507082438 | -1 | 267 | 0.0 | 0.0 | 0.00 | 0.00 | 0.00 | 91 | 1022.6 |
| 20260507080935 | -1 | 285 | 4.8 | 11.3 | 0.00 | 0.00 | 0.00 | 94 | 1022.7 |
| 20260507075434 | -2 | 285 | 8.0 | 11.3 | 0.00 | 0.00 | 0.00 | 96 | 1023.0 |
| 20260507073931 | -2 | 276 | 0.0 | 0.0 | 0.00 | 0.00 | 0.00 | 96 | 1023.2 |
| 20260507072428 | -3 | 272 | 0.0 | 0.0 | 0.00 | 0.00 | 0.00 | 96 | 1023.5 |
| 20260507070924 | -3 | 274 | 0.0 | 0.0 | 0.00 | 0.00 | 0.00 | 96 | 1023.5 |
| 20260507065421 | -4 | 301 | 0.0 | 0.0 | 0.00 | 0.00 | 0.00 | 96 | 1023.6 |
| 20260507063920 | -4 | 325 | 0.0 | 0.0 | 0.00 | 0.00 | 0.00 | 96 | 1023.6 |
| 20260507062416 | -3 | 297 | 0.0 | 0.0 | 0.00 | 0.00 | 0.00 | 96 | 1023.6 |
| 20260507060916 | -2 | 307 | 0.0 | 0.0 | 0.00 | 0.00 | 0.00 | 96 | 1023.9 |
| 20260507055416 | -2 | 308 | 0.0 | 0.0 | 0.00 | 0.05 | 0.05 | 95 | 1023.5 |
| 20260507053913 | -1 | 265 | 0.0 | 0.0 | 0.00 | 0.05 | 0.05 | 95 | 1023.6 |
| 20260507052412 | -1 | 224 | 0.0 | 0.0 | 0.00 | 0.05 | 0.05 | 95 | 1023.6 |
| 20260507050909 | -1 | 213 | 0.0 | 0.0 | 0.00 | 0.05 | 0.05 | 95 | 1023.5 |
| 20260507045404 | -1 | 270 | 0.0 | 0.0 | 0.00 | 0.05 | 0.05 | 95 | 1023.6 |
| 20260507043900 | -1 | 263 | 0.0 | 0.0 | 0.00 | 0.05 | 0.05 | 95 | 1023.5 |
| 20260507042355 | -1 | 248 | 0.0 | 0.0 | 0.00 | 0.05 | 0.05 | 95 | 1023.7 |
| 20260507040852 | -1 | 291 | 0.0 | 0.0 | 0.00 | 0.05 | 0.05 | 95 | 1023.5 |
| 20260507035350 | -1 | 296 | 0.0 | 0.0 | 0.00 | 0.05 | 0.05 | 95 | 1023.5 |
| 20260507033848 | -1 | 295 | 0.0 | 0.0 | 0.00 | 0.05 | 0.05 | 94 | 1023.5 |
| 20260507032344 | 0 | 226 | 0.0 | 0.0 | 0.00 | 0.05 | 0.05 | 94 | 1023.1 |
| 20260507030840 | 0 | 184 | 0.0 | 0.0 | 0.00 | 0.05 | 0.05 | 93 | 1023.1 |
| 20260507025337 | 0 | 342 | 0.0 | 0.0 | 0.00 | 0.05 | 0.05 | 92 | 1023.2 |
| 20260507023834 | 0 | 208 | 0.0 | 0.0 | 0.00 | 0.05 | 0.05 | 91 | 1023.1 |
| 20260507022329 | 0 | 205 | 0.0 | 0.0 | 0.00 | 0.05 | 0.05 | 89 | 1022.8 |
| 20260507020825 | 0 | 187 | 0.0 | 0.0 | 0.00 | 0.05 | 0.05 | 87 | 1022.7 |
| 20260507015322 | 0 | 238 | 0.0 | 0.0 | 0.00 | 0.05 | 0.05 | 85 | 1022.8 |
| 20260507013817 | 1 | 73 | 0.0 | 0.0 | 0.00 | 0.05 | 0.05 | 83 | 1022.8 |
| 20260507012314 | 2 | 214 | 0.0 | 1.6 | 0.00 | 0.05 | 0.05 | 77 | 1022.5 |
| 20260507010814 | 3 | 45 | 0.0 | 0.0 | 0.00 | 0.05 | 0.05 | 74 | 1022.7 |
| 20260507005309 | 2 | 222 | 0.0 | 0.0 | 0.00 | 0.05 | 0.05 | 73 | 1022.5 |
| 20260507003806 | 2 | 235 | 0.0 | 0.0 | 0.00 | 0.05 | 0.05 | 74 | 1022.6 |
| 20260507002306 | 3 | 206 | 0.0 | 0.0 | 0.00 | 0.05 | 0.05 | 70 | 1022.4 |
| 20260507000802 | 3 | 163 | 0.0 | 3.2 | 0.00 | 0.05 | 0.05 | 68 | 1022.5 |
| 20260506235256 | 3 | 141 | 0.0 | 0.0 | 0.00 | 0.05 | 0.05 | 65 | 1022.1 |
| 20260506233754 | 3 | 300 | 0.0 | 0.0 | 0.00 | 0.05 | 0.05 | 66 | 1022.5 |
| 20260506232253 | 2 | 321 | 0.0 | 0.0 | 0.00 | 0.05 | 0.05 | 66 | 1022.4 |
| 20260506230751 | 3 | 326 | 0.0 | 0.0 | 0.00 | 0.05 | 0.05 | 63 | 1022.2 |
| 20260506225248 | 2 | 13 | 0.0 | 0.0 | 0.00 | 0.05 | 0.05 | 67 | 1022.2 |
| 20260506223743 | 3 | 329 | 0.0 | 0.0 | 0.00 | 0.05 | 0.05 | 71 | 1022.4 |
| 20260506222238 | 2 | 38 | 0.0 | 0.0 | 0.00 | 0.05 | 0.05 | 71 | 1022.2 |
| 20260506220737 | 3 | 351 | 1.6 | 3.2 | 0.00 | 0.05 | 0.05 | 69 | 1022.2 |
| 20260506215236 | 3 | 19 | 0.0 | 0.0 | 0.00 | 0.05 | 0.05 | 73 | 1022.6 |
| 20260506213734 | 2 | 335 | 0.0 | 0.0 | 0.00 | 0.05 | 0.05 | 80 | 1022.6 |
| 20260506212229 | 1 | 6 | 0.0 | 1.6 | 0.00 | 0.05 | 0.05 | 88 | 1022.4 |
| 20260506210724 | 0 | 339 | 3.2 | 8.0 | 0.00 | 0.05 | 0.05 | 92 | 1022.5 |
| 20260506205219 | 1 | 47 | 1.6 | 4.8 | 0.00 | 0.05 | 0.05 | 95 | 1022.5 |
| 20260506203718 | 0 | 43 | 0.0 | 0.0 | 0.00 | 0.05 | 0.05 | 96 | 1022.4 |
| 20260506202214 | 0 | 356 | 6.4 | 12.9 | 0.00 | 0.05 | 0.05 | 96 | 1022.7 |
| 20260506200711 | 0 | 5 | 3.2 | 8.0 | 0.00 | 0.05 | 0.05 | 96 | 1022.7 |
| 20260506195206 | 0 | 8 | 1.6 | 3.2 | 0.00 | 0.05 | 0.05 | 96 | 1022.4 |
| 20260506193704 | 0 | 343 | 1.6 | 4.8 | 0.00 | 0.05 | 0.05 | 96 | 1022.7 |
| 20260506192159 | 0 | 32 | 0.0 | 0.0 | 0.00 | 0.05 | 0.05 | 96 | 1022.6 |